Flight Track Log - Related Links

Times and Time Zones

All times are in EDT time to prevent confusion due to time zone crossing. See the ASQ3849 flight status page for this flight to view local times or setup timezone preferences in your user account.

Time Position Orientation Groundspeed Altitude Reporting Facility
EDT Latitude Longitude Course Direction KTS MPH feet Rate Location/Type
Fri 07:12:36 PM 41.4194 -81.8347 357° North 160 184 1,800  Level Cleveland Center
Fri 07:13:43 PM 41.4903 -81.8389 357° North 270 311 3,300 1,850 Climbing Cleveland Center
Fri 07:14:36 PM 41.5333 -81.8953 316° Northwest 278 320 5,500 2,602 Climbing Cleveland Center
Fri 07:15:36 PM 41.4969 -81.9747 239° Southwest 284 327 8,200 2,350 Climbing Cleveland Center
Fri 07:16:36 PM 41.4544 -82.0542 234° Southwest 277 319 10,200 1,350 Climbing Cleveland Center
Fri 07:17:36 PM 41.4031 -82.1500 234° Southwest 293 337 10,900 1,050 Climbing Cleveland Center
Fri 07:18:36 PM 41.3475 -82.2511 234° Southwest 332 382 12,300 1,450 Climbing Cleveland Center
Fri 07:19:36 PM 41.3100 -82.3744 248° West 352 405 13,800 1,500 Climbing Cleveland Center
Fri 07:20:36 PM 41.2808 -82.5036 253° West 369 425 15,300 1,450 Climbing Cleveland Center
Fri 07:21:36 PM 41.2475 -82.6350 251° West 369 425 16,700 1,250 Climbing Cleveland Center
Fri 07:22:36 PM 41.2139 -82.7611 251° West 369 425 17,800 1,000 Climbing Cleveland Center
Fri 07:23:36 PM 41.1778 -82.8978 251° West 378 435 18,700 950 Climbing Cleveland Center
Fri 07:24:36 PM 41.1481 -83.0181 252° West 383 441 19,700 1,050 Climbing Cleveland Center
Fri 07:25:36 PM 41.1117 -83.1572 251° West 394 453 20,800 1,100 Climbing Cleveland Center
Fri 07:26:36 PM 41.0747 -83.3100 252° West 399 459 21,900 1,194 Climbing Cleveland Center
Fri 07:28:42 PM 40.9983 -83.5928 250° West 406 467 24,500 1,187 Climbing Indianapolis Center
Fri 07:29:43 PM 40.9597 -83.7314 250° West 401 461 25,600 1,024 Climbing Indianapolis Center
Fri 07:30:45 PM 40.8772 -83.8264 221° Southwest 393 452 26,600 927 Climbing Indianapolis Center
Fri 07:31:46 PM 40.7872 -83.9100 215° Southwest 395 455 27,500 1,122 Climbing Indianapolis Center
Fri 07:32:48 PM 40.6817 -84.0067 215° Southwest 394 453 28,900 1,210 Climbing Indianapolis Center
Fri 07:33:50 PM 40.5942 -84.0858 214° Southwest 382 440 30,000 537 Climbing Indianapolis Center
Fri 07:34:51 PM 40.5025 -84.1697 215° Southwest 395 455 30,000  Level Indianapolis Center
Fri 07:35:53 PM 40.4044 -84.2581 214° Southwest 422 486 30,000  Level Indianapolis Center
Fri 07:36:54 PM 40.3044 -84.3486 215° Southwest 433 498 30,000  Level Indianapolis Center
Fri 07:37:56 PM 40.2022 -84.4408 215° Southwest 441 507 30,000  Level Indianapolis Center
Fri 07:38:58 PM 40.1039 -84.5286 214° Southwest 430 495 30,000  Level Indianapolis Center
Fri 07:39:59 PM 40.0044 -84.6167 214° Southwest 429 494 30,000  Level Indianapolis Center
Fri 07:41:01 PM 39.9064 -84.7044 214° Southwest 425 489 30,000  Level Indianapolis Center
Fri 07:42:02 PM 39.7914 -84.8064 214° Southwest 427 491 30,000  Level Indianapolis Center
Fri 07:43:03 PM 39.6847 -84.8708 205° Southwest 421 484 30,000  Level Indianapolis Center
Fri 07:44:05 PM 39.5881 -84.9156 200° South 421 484 30,000  Level Indianapolis Center
Fri 07:45:06 PM 39.4781 -84.9658 199° South 420 483 30,000  Level Indianapolis Center
Fri 07:46:08 PM 39.3447 -85.0250 199° South 421 484 30,000  Level Indianapolis Center
Fri 07:47:10 PM 39.2350 -85.0756 200° South 419 482 30,000  Level Indianapolis Center
Fri 07:48:11 PM 39.1236 -85.1258 199° South 423 487 30,000  Level Indianapolis Center
Fri 07:49:13 PM 39.0136 -85.1756 199° South 421 484 30,000  Level Indianapolis Center
Fri 07:50:14 PM 38.9025 -85.2258 199° South 422 486 30,000  Level Indianapolis Center
Fri 07:51:15 PM 38.7919 -85.2733 199° South 419 482 30,000  Level Indianapolis Center
Fri 07:52:17 PM 38.6808 -85.3231 199° South 422 486 30,000  Level Indianapolis Center
Fri 07:53:18 PM 38.5714 -85.3717 199° South 421 484 30,000  Level Indianapolis Center
Fri 07:54:20 PM 38.4386 -85.4303 199° South 420 483 30,000  Level Indianapolis Center
Fri 07:55:21 PM 38.3278 -85.4789 199° South 419 482 30,000  Level Indianapolis Center
Fri 07:56:23 PM 38.2161 -85.5272 199° South 419 482 30,000  Level Indianapolis Center
Fri 07:57:24 PM 38.1053 -85.5744 199° South 419 482 30,000  Level Indianapolis Center
Fri 07:58:26 PM 37.9903 -85.5942 188° South 415 478 30,000  Level Indianapolis Center
Fri 07:59:27 PM 37.8725 -85.6106 186° South 417 480 30,000  Level Indianapolis Center
Fri 08:00:29 PM 37.7539 -85.6289 187° South 424 488 30,000  Level Indianapolis Center
Fri 08:01:30 PM 37.6375 -85.6453 186° South 420 483 30,000 -732 Level Indianapolis Center
Fri 08:02:32 PM 37.5206 -85.6617 186° South 421 484 28,500 -1,512 Descending Indianapolis Center
Fri 08:03:33 PM 37.4075 -85.6783 187° South 409 471 26,900 -1,643 Descending Indianapolis Center
Fri 08:03:56 PM 37.3586 -85.6889 190° South 421 484 26,200 -1,590 Descending Memphis Center
Fri 08:04:56 PM 37.2447 -85.7033 186° South 421 484 24,700 -1,400 Descending Memphis Center
Fri 08:05:56 PM 37.1328 -85.7203 187° South 421 484 23,400 -1,050 Descending Memphis Center
Fri 08:06:56 PM 37.0206 -85.7322 185° South 416 479 22,600 -1,250 Descending Memphis Center
Fri 08:07:56 PM 36.9089 -85.7517 188° South 410 472 20,900 -1,800 Descending Memphis Center
Fri 08:08:56 PM 36.7911 -85.7817 192° South 404 465 19,000 -2,050 Descending Memphis Center
Fri 08:09:56 PM 36.6994 -85.8386 206° Southwest 391 450 16,800 -2,200 Descending Memphis Center
Fri 08:10:56 PM 36.6139 -85.8925 207° Southwest 368 423 14,600 -2,150 Descending Memphis Center
Fri 08:11:56 PM 36.5283 -85.9436 206° Southwest 348 400 12,500 -1,600 Descending Memphis Center
Fri 08:12:56 PM 36.4617 -86.0067 217° Southwest 326 375 11,400 -1,100 Descending Memphis Center
Fri 08:13:56 PM 36.4292 -86.0883 244° Southwest 281 323 10,300 -1,450 Descending Memphis Center
Fri 08:14:56 PM 36.3964 -86.1725 244° Southwest 276 318 8,500 -1,750 Descending Memphis Center
Fri 08:15:56 PM 36.3617 -86.2569 243° Southwest 276 318 6,800 -1,500 Descending Memphis Center
Fri 08:16:56 PM 36.3328 -86.3306 244° Southwest 276 318 5,500 -1,350 Descending Memphis Center
Fri 08:17:56 PM 36.3039 -86.4039 244° Southwest 255 293 4,100 -1,200 Descending Memphis Center
Fri 08:18:56 PM 36.2750 -86.4775 244° Southwest 244 281 3,100 -800 Descending Memphis Center
Fri 08:19:56 PM 36.2461 -86.5508 244° Southwest 244 281 2,500 -450 Descending Memphis Center
Fri 08:20:56 PM 36.2317 -86.6289 257° West 239 275 2,200 -400 Descending Memphis Center
Fri 08:21:56 PM 36.1869 -86.6617 211° Southwest 167 192 1,700 -650 Descending Memphis Center
Fri 08:22:56 PM 36.1456 -86.6764 196° South 160 184 900 -500 Descending Memphis Center
Fri 08:23:56 PM 36.1047 -86.7014 206° Southwest 160 184 700 -200 Descending Memphis Center
Fri 08:25:00 PM 36.1167 -86.6667 58° Northeast  Level FlightAware Approximate
Fri 08:32:00 PM 36.1245 -86.6782 58° Northeast  Level Estimated
Fri 08:33:00 PM 36.1245 -86.6782 58° Northeast  Level Estimated
Fri 08:34:00 PM 36.1245 -86.6782 58° Northeast  Level Estimated
Fri 08:35:00 PM 36.1245 -86.6782 58° Northeast  Level Estimated
Fri 08:36:00 PM 36.1245 -86.6782 58° Northeast  Level Estimated
Fri 08:37:00 PM 36.1245 -86.6782 58° Northeast  Level Estimated
Fri 08:38:00 PM 36.1245 -86.6782 58° Northeast  Level Estimated
Fri 08:39:00 PM 36.1245 -86.6782 58° Northeast  Level Estimated
Fri 08:40:00 PM 36.1245 -86.6782 58° Northeast  Level Estimated

Login

Don't have an account? Register now (free) for customized features, flight alerts, and more!